Flag for Switzerland Weather past 2 weeks in Geneva, Geneva, Switzerland

Now
46 °F

Cool.


Feels Like: 44 °F
Forecast: 47 / 52 °F
Wind: 3 mph from West

Location: Geneve-Cointrin

Current Time: Dec 18, 2014 at 1:02:32 PM

Latest Report: Dec 18, 2014 at 12:00 PM


Visibility: N/A

Pressure: 30.26 "Hg

Humidity: 91%

Dew point: 43 °F

Location of GenevaLocation

Historic Weather in Geneva — Graph

°F

Geneva temperature yesterday

Maximum temperature yesterday: 43 °F (at 12:00 PM)
Minimum temperature yesterday: 35 °F (at 3:00 AM)
Average temperature yesterday: 39 °F

Past Weeks' High & Low Weather Summary

 TemperatureHumidityPressure
High55 °F (Dec 13, 3:00 PM)97% (Dec 16, 6:00 AM)30.48 "Hg (Dec 16, 6:00 AM)
Low29 °F (Dec 10, 5:00 AM)46% (Dec 13, 1:00 PM)29.92 "Hg (Dec 13, 4:00 AM)
Average42 °F79%30.12 "Hg
* Reported Dec 3 11:00 AM — Dec 18 11:00 AM, Geneva, Weather by CustomWeather, © 2014

Note: Actual official high and low records may vary slightly from our data, if they occured in-between our weather recording intervals... More about our weather records

Advertising

Geneva weather history for previous 24 hours

 ConditionsComfort  
Time TempWeatherWind HumidityBarometerVisibility
11:00 AM
Dec 18
45 °FCool.1 mph89%30.25 "HgN/A
10:00 AM44 °FLight rain. Overcast.3 mph91%30.23 "Hg6 mi
9:00 AM42 °FQuite cool.2 mph93%30.21 "HgN/A
8:00 AM42 °FQuite cool.3 mph94%30.20 "HgN/A
7:00 AM42 °FRain. Overcast.3 mph94%30.17 "Hg6 mi
6:00 AM42 °FQuite cool.2 mph93%30.17 "HgN/A
5:00 AM41 °FQuite cool.2 mph94%30.16 "HgN/A
3:00 AM41 °FQuite cool.2 mph93%30.17 "HgN/A
2:00 AM41 °FQuite cool.3 mph94%30.16 "HgN/A
1:00 AM41 °FLow clouds.3 mph94%30.16 "Hg12 mi
12:00 AM41 °FQuite cool.3 mph92%30.16 "HgN/A
11:00 PM
Dec 17
40 °FQuite cool.2 mph94%30.14 "HgN/A
10:00 PM41 °FRain. Low clouds.3 mph90%30.12 "Hg7 mi
9:00 PM41 °FQuite cool.5 mph92%30.11 "HgN/A
8:00 PM41 °FQuite cool.3 mph92%30.09 "HgN/A
7:00 PM40 °FLight rain. Low clouds.1 mph93%30.08 "Hg5 mi
6:00 PM40 °FChilly.3 mph92%30.06 "HgN/A
5:00 PM39 °FChilly.6 mph90%30.05 "HgN/A
4:00 PM39 °FLight rain. Overcast.10 mph90%30.04 "Hg5 mi
3:00 PM40 °FChilly.10 mph89%30.04 "HgN/A
2:00 PM40 °FQuite cool.8 mph88%30.05 "HgN/A
1:00 PM42 °FLight rain. Overcast.10 mph86%30.06 "Hg6 mi
Weather by CustomWeather, © 2014

See weather overviewHow to use our weather pages